Погода в Рахмангулове

Россия / Свердловская область     56°35′24″N   58°03′07″E
темп.,
°C
ветер,
м/с
пор.,
м/с
влажн.,
%
обл.,
%
осадки,
мм/ч
давл.,
гПа
погр.,
м
26 июня, вс
вс2623:00+11сз39881 0.6 1006156
02:00+10сз512871 0.0 1007382
05:00+8сз512905 0.0 1008485
08:00+10ссз7107494 0.0 10081088
11:00+10ссз81074100 0.3 10091125
14:00+10сз71174100 0.1 10101318
17:00+9ссз71178100 0.1 10111075
20:00+8сз7117898 0.0 1012958
27 июня, пн
пн2723:00+8ссз7117898 0.0 1013910
02:00+7ссз61076100 0.0 1013861
05:00+5сз4108656 0.0 1014390
08:00+9сз697650 0.0 1014697
11:00+14сз68595 0.0 10121129
14:00+18з68529 0.0 10101476
17:00+14зюз3675100 0.4 1007154
20:00+14сз7139241 9.5 1006795
28 июня, вт
вт2823:00+9ссз71294100 9.6 1010609
02:00+7ссз61193100 0.0 1011588
05:00+6ссз6992100 0.1 1011637
08:00+5ссз6881100 0.1 10121044
11:00+6ссз6968100 0.1 10121274
14:00+8ссз7871100 0.3 10121337
17:00+8ссз6976100 0.9 10131163
20:00+7сз61083100 0.2 1013874
29 июня, ср
ср2923:00+6сз598981 0.3 1014591
02:00+5сз5991100 0.1 1013675
05:00+5ссз5890100 0.1 1013621
08:00+6сз61193100 0.0 1013582
11:00+9ссз61285100 0.0 1013665
14:00+15ссз896176 0.0 10111685
17:00+17сз79626 0.0 10101753
20:00+14сз61168100 0.0 1010431
30 июня, чт
чт3023:00+10сз4970100 0.0 1010226
02:00+9сз4867100 0.0 1010243
05:00+8зсз2469100 0.0 1009111
08:00+11зсз356997 0.0 1007434
11:00+13зсз4561100 0.3 10061417
14:00+13ссз677398 1.0 10051150
17:00+11ссз5672100 1.7 1006913
20:00+9с478548 0.4 1007512